Change the Weather History Date:

Thursday, August 21, 2014

  Actual Average Record
Temperature  
Mean Temperature 82 °F -  
Max Temperature 91 °F 85 °F 98 °F (1955)
Min Temperature 73 °F 63 °F 46 °F (1956)
Cooling Degree Days 17    
Growing Degree Days 32 (Base 50)    
Moisture  
Dew Point 74 °F    
Average Humidity 82    
Maximum Humidity 100    
Minimum Humidity 66    
Precipitation  
Precipitation 0.00 in - - ()
Sea Level Pressure  
Sea Level Pressure 29.84 in    
Wind  
Wind Speed 9 mph (SSE)    
Max Wind Speed 17 mph    
Max Gust Speed 22 mph    
Visibility 9 miles    
Events      
Averages and records for this station are not official NWS values.
T = Trace of Precipitation, MM = Missing Value Source: NWS Daily Summary

Daily Weather History Graph

Daily Weather History Graph

Search for Another Location

Airport or City:

Trip Planner

Search our weather history database for the weather conditions in past years. The results will help you decide how hot, cold, wet, or windy it might be!

Date:

Astronomy

Aug. 21, 2014 Rise Set
Actual Time 6:37 AM CDT 8:10 PM CDT
Civil Twilight 6:08 AM CDT 8:39 PM CDT
Nautical Twilight 5:34 AM CDT 9:14 PM CDT
Astronomical Twilight 4:56 AM CDT 9:51 PM CDT
Moon 3:08 AM CDT (8/21) 5:40 PM CDT (8/21)
Length of Visible Light 14h 30m
Length of Day
13h 33m
Waning Crescent, 13% of the Moon is Illuminated
Aug 21
Waning Crescent
Aug 25
New
Sep 2
First Quarter
Sep 8
Full
Sep 15
Last Quarter

Hourly Weather History & Observations

Time (CDT) Temp. Heat Index Dew Point Humidity Pressure Visibility Wind Dir Wind Speed Gust Speed Precip Events Conditions
12:10 AM 80.6 °F 85.4 °F 73.4 °F 79% 29.82 in 10.0 mi SSE 13.8 mph - N/A   Scattered Clouds
12:35 AM 80.6 °F 85.4 °F 73.4 °F 79% 29.83 in 10.0 mi South 12.7 mph 20.7 mph N/A   Mostly Cloudy
12:55 AM 78.8 °F - 73.4 °F 83% 29.83 in 10.0 mi SSE 13.8 mph - N/A   Scattered Clouds
1:15 AM 78.8 °F - 71.6 °F 78% 29.83 in 10.0 mi South 11.5 mph - N/A   Clear
1:35 AM 78.8 °F - 71.6 °F 78% 29.82 in 10.0 mi SSE 11.5 mph - N/A   Clear
1:55 AM 78.8 °F - 71.6 °F 78% 29.82 in 10.0 mi SSE 11.5 mph - N/A   Clear
2:15 AM 78.8 °F - 69.8 °F 74% 29.82 in 10.0 mi South 10.4 mph - N/A   Clear
2:35 AM 78.8 °F - 69.8 °F 74% 29.82 in 10.0 mi South 11.5 mph - N/A   Clear
2:55 AM 77.0 °F - 69.8 °F 78% 29.82 in 10.0 mi South 11.5 mph - N/A   Clear
3:15 AM 77.0 °F - 69.8 °F 78% 29.82 in 10.0 mi South 9.2 mph - N/A   Partly Cloudy
3:35 AM 77.0 °F - 69.8 °F 78% 29.82 in 10.0 mi South 5.8 mph 11.5 mph N/A   Scattered Clouds
3:55 AM 77.0 °F - 69.8 °F 78% 29.81 in 10.0 mi South 8.1 mph 13.8 mph N/A   Scattered Clouds
4:15 AM 77.0 °F - 69.8 °F 78% 29.81 in 10.0 mi Variable 6.9 mph - N/A   Mostly Cloudy
4:35 AM 77.0 °F - 69.8 °F 78% 29.81 in 10.0 mi South 6.9 mph - N/A   Overcast
4:55 AM 77.0 °F - 69.8 °F 78% 29.80 in 10.0 mi South 8.1 mph - N/A   Mostly Cloudy
5:15 AM 77.0 °F - 69.8 °F 78% 29.80 in 10.0 mi South 8.1 mph - N/A   Mostly Cloudy
5:35 AM 75.2 °F - 69.8 °F 83% 29.80 in 10.0 mi South 8.1 mph - N/A   Mostly Cloudy
5:55 AM 75.2 °F - 69.8 °F 83% 29.81 in 10.0 mi SSW 6.9 mph - N/A   Mostly Cloudy
6:15 AM 75.2 °F - 71.6 °F 89% 29.83 in 10.0 mi SSW 6.9 mph - N/A   Mostly Cloudy
6:35 AM 75.2 °F - 71.6 °F 89% 29.84 in 10.0 mi South 5.8 mph - N/A   Unknown
6:55 AM 73.4 °F - 71.6 °F 94% 29.85 in 9.0 mi SW 4.6 mph - N/A   Unknown
7:15 AM 73.4 °F - 71.6 °F 94% 29.86 in 9.0 mi Calm Calm - N/A   Clear
7:35 AM 75.2 °F - 71.6 °F 89% 29.87 in 9.0 mi SSW 4.6 mph - N/A   Clear
7:55 AM 75.2 °F - 71.6 °F 89% 29.86 in 9.0 mi South 5.8 mph - N/A   Clear
8:15 AM 75.2 °F - 69.8 °F 83% 29.86 in 9.0 mi SSW 8.1 mph - N/A   Clear
8:55 AM 77.0 °F - 69.8 °F 78% 29.84 in 9.0 mi South 12.7 mph - N/A   Clear
9:15 AM 77.0 °F - 69.8 °F 78% 29.84 in 10.0 mi South 12.7 mph - N/A   Partly Cloudy
9:35 AM 77.0 °F - 69.8 °F 78% 29.84 in 9.0 mi South 12.7 mph - N/A   Clear
9:55 AM 75.2 °F - 69.8 °F 83% 29.85 in 10.0 mi SSW 9.2 mph - N/A   Clear
10:15 AM 77.0 °F - 69.8 °F 78% 29.84 in 9.0 mi SSW 13.8 mph - N/A   Clear
10:35 AM 77.0 °F - 69.8 °F 78% 29.85 in 10.0 mi SSW 12.7 mph 20.7 mph N/A   Clear
10:55 AM 77.0 °F - 71.6 °F 83% 29.86 in 7.0 mi SSW 12.7 mph - N/A   Clear
11:15 AM 77.0 °F - 71.6 °F 83% 29.86 in 8.0 mi SSW 11.5 mph - N/A   Partly Cloudy
11:35 AM 77.0 °F - 71.6 °F 83% 29.85 in 7.0 mi South 11.5 mph - N/A   Partly Cloudy
12:15 PM 77.0 °F - 71.6 °F 83% 29.81 in 9.0 mi South 17.3 mph - N/A   Clear
12:35 PM 78.8 °F - 73.4 °F 83% 29.81 in 10.0 mi South 13.8 mph 21.9 mph N/A   Clear
12:55 PM 80.6 °F 85.4 °F 73.4 °F 79% 29.84 in 9.0 mi NNW 5.8 mph - N/A   Clear
1:15 PM 80.6 °F 86.2 °F 75.2 °F 84% 29.82 in 9.0 mi SSE 9.2 mph - N/A   Clear
1:35 PM 82.4 °F 89.5 °F 75.2 °F 79% 29.83 in 9.0 mi South 8.1 mph - N/A   Clear
1:55 PM 86.0 °F 96.9 °F 77.0 °F 74% 29.84 in 10.0 mi Variable 4.6 mph - N/A   Clear
2:15 PM 86.0 °F 96.9 °F 77.0 °F 74% 29.83 in 9.0 mi South 9.2 mph - N/A   Clear
2:35 PM 86.0 °F 96.9 °F 77.0 °F 74% 29.85 in 9.0 mi SSW 5.8 mph - N/A   Clear
2:55 PM 87.8 °F 99.7 °F 77.0 °F 70% 29.85 in 9.0 mi SSE 4.6 mph - N/A   Clear
3:15 PM 89.6 °F 104.7 °F 78.8 °F 70% 29.85 in 10.0 mi Calm Calm - N/A   Clear
3:35 PM 87.8 °F 102.5 °F 78.8 °F 75% 29.84 in 10.0 mi SW 5.8 mph - N/A   Clear
3:55 PM 87.8 °F 99.7 °F 77.0 °F 70% 29.84 in 9.0 mi Calm Calm - N/A   Clear
4:15 PM 89.6 °F 104.7 °F 78.8 °F 70% 29.83 in 9.0 mi SSE 4.6 mph - N/A   Clear
4:35 PM 89.6 °F 104.7 °F 78.8 °F 70% 29.83 in 10.0 mi SE 4.6 mph - N/A   Clear
4:55 PM 89.6 °F 104.7 °F 78.8 °F 70% 29.82 in 10.0 mi SE 6.9 mph - N/A   Clear
5:15 PM 89.6 °F 108.2 °F 80.6 °F 75% 29.83 in 9.0 mi ESE 8.1 mph - N/A   Clear
5:35 PM 89.6 °F 108.2 °F 80.6 °F 75% 29.84 in 10.0 mi Calm Calm - N/A   Clear
5:55 PM 91.4 °F 107.2 °F 78.8 °F 66% 29.84 in 10.0 mi East 4.6 mph - N/A   Clear
6:35 PM 89.6 °F 108.2 °F 80.6 °F 75% 29.83 in 9.0 mi ENE 4.6 mph - N/A   Clear
6:55 PM 87.8 °F 104.9 °F 80.6 °F 79% 29.82 in 9.0 mi North 5.8 mph - N/A   Clear
7:15 PM 86.0 °F 101.9 °F 80.6 °F 84% 29.82 in 9.0 mi NNE 6.9 mph - N/A   Clear
7:35 PM 86.0 °F 101.9 °F 80.6 °F 84% 29.83 in 10.0 mi NNE 6.9 mph - N/A   Clear
7:55 PM 84.2 °F 98.3 °F 80.6 °F 89% 29.83 in 9.0 mi NNE 4.6 mph - N/A   Clear
8:15 PM 82.4 °F 94.0 °F 80.6 °F 94% 29.83 in 8.0 mi NNE 5.8 mph - N/A   Clear
8:35 PM 80.6 °F 88.1 °F 78.8 °F 94% 29.84 in 8.0 mi NNE 4.6 mph - N/A   Clear
8:55 PM 80.6 °F 88.1 °F 78.8 °F 94% 29.85 in 8.0 mi NNE 4.6 mph - N/A   Clear
9:15 PM 80.6 °F 88.1 °F 78.8 °F 94% 29.85 in 8.0 mi NE 5.8 mph - N/A   Clear
9:35 PM 80.6 °F 88.1 °F 78.8 °F 94% 29.85 in 8.0 mi NE 5.8 mph - N/A   Clear
9:55 PM 78.8 °F - 78.8 °F 100% 29.85 in 6.0 mi NE 6.9 mph - N/A   Clear
10:15 PM 78.8 °F - 78.8 °F 100% 29.86 in 7.0 mi NE 5.8 mph - N/A   Mostly Cloudy
10:35 PM 80.6 °F 88.1 °F 78.8 °F 94% 29.85 in 7.0 mi NE 3.5 mph - N/A   Overcast
11:15 PM 78.8 °F - 78.8 °F 100% 29.86 in 7.0 mi NNE 6.9 mph - N/A   Unknown
11:35 PM 80.6 °F 88.1 °F 78.8 °F 94% 29.86 in 9.0 mi ESE 4.6 mph - N/A   Unknown
11:55 PM 78.8 °F - 78.8 °F 100% 29.86 in 8.0 mi Calm Calm - N/A   Partly Cloudy